Location: Hurstbourne Priors
(51.2000°N, 1.3667°W)
Time: 15:12:33
(UTC+00:00)

ATLAS 5 CENTAUR R/B - Pass Details

Date: 09 April 2020
Orbit: 543 x 1116 km, 63.4° (Epoch: 01 May)

Event Time Altitude Azimuth Distance (km) Brightness Sun altitude
Rises 21:43:30 0° 259° (W) 2,814 5.3 -23.2°
Reaches altitude 10° 21:45:49 10° 270° (W) 1,973 4.6 -23.5°
Maximum altitude 21:49:49 32° 334° (NNW) 1,142 3.5 -23.8°
Drops below altitude 10° 21:54:24 10° 38° (NE) 2,260 4.6 -24.3°
Sets 21:57:14 0° 48° (NE) 3,294 5.4 -24.5°
